Regional Weather Roundup
Issued by NWS Upton, NY

Current Version | Previous Version | Graphics & Text | Print | Product List | Glossary Off
Versions: 1 2 3 4 5 6 7 8 9 10 11 12 13 14 15 16 17 18 19 20 21 22 23 24 25 26 27 28 29 30 31 32 33 34 35 36 37 38 39 40 41 42 43 44 45 46 47 48 49

000
ASUS41 KOKX 302204
RWROKX

REGIONAL WEATHER ROUNDUP
NATIONAL WEATHER SERVICE NEW YORK NY
600 PM EDT SUN AUG 30 2015

NOTE: "FAIR" INDICATES FEW OR NO CLOUDS BELOW 12,000 FEET WITH NO
SIGNIFICANT WEATHER AND/OR OBSTRUCTIONS TO VISIBILITY.

NYZ071-072-176-178-NJZ106-104-302300-
NEW YORK CITY METRO AREA


CITY           SKY/WX    TMP DP  RH WIND       PRES   REMARKS
CENTRAL PARK   PTSUNNY   84  66  54 VRB5      30.04S
LAGUARDIA APRT PTSUNNY   83  67  58 S13       30.00F
KENNEDY INTL   PTSUNNY   80  69  69 S14       30.02F
NEWARK/LIBERTY PTSUNNY   87  67  51 VRB3      30.00F HX  90
BRNX BOT. GARD   N/A     81  66  61 SE3       30.02R
TETERBORO      PTSUNNY   85  64  49 SE8       29.99S
$$

NYZ177-179-078>081-302300-
LONG ISLAND NEW YORK

CITY           SKY/WX    TMP DP  RH WIND       PRES   REMARKS
FARMINGDALE    PTSUNNY   80  68  66 S12       30.03S
ISLIP          PTSUNNY   78  67  68 S13       30.01F
SHIRLEY        PTSUNNY   78  68  71 S8        30.04S
WESTHAMPTON    PTSUNNY   78  67  68 SW9       30.05S
MONTAUK POINT    N/A     77  68  73 VRB6      30.04S
$$

NYZ052-065-067-302300-
HUDSON VALLEY

CITY           SKY/WX    TMP DP  RH WIND       PRES   REMARKS
WHITE PLAINS   PTSUNNY   81  68  64 S7        30.02S
NEWBURGH       PTSUNNY   79  70  73 N5        30.03F
MONTGOMERY     CLOUDY    80  69  69 N3        30.02S
POUGHKEEPSIE   LGT RAIN  76  70  82 CALM      30.01S
ALBANY         MOSUNNY   82  62  50 CALM      30.00F
$$

NJZ001-105-106-008-010-013-015-019>022-104-302300-
NEW JERSEY

CITY           SKY/WX    TMP DP  RH WIND       PRES   REMARKS
NEWARK/LIBERTY PTSUNNY   87  67  51 VRB3      30.00F HX  90
TETERBORO      PTSUNNY   85  64  49 SE8       29.99S
CALDWELL       CLOUDY    87  63  44 W3        30.01S
MORRISTOWN     CLOUDY    88  64  45 W8        30.01F
SOMERVILLE     PTSUNNY   86  64  47 VRB3      29.99S
SUSSEX         CLOUDY    77  72  84 NE3       30.02F
ANDOVER          N/A     83  69  62 SW3       30.03F
TRENTON        MOSUNNY   87  66  49 SW8       30.01F
MILLVILLE      PTSUNNY   81  67  62 S6        30.06S
ATLANTIC CITY  PTSUNNY   83  64  52 SW8       30.06S
WRIGHTSTOWN    SUNNY     86  65  49 SW13      30.00S
TOMS RIVER     MOSUNNY   88  64  45 SW9       30.03F
BELMAR         MOSUNNY   88  63  42 SW8       30.02F
$$

PAZ047>061-062-071-302300-
EASTERN PENNSYLVANIA

CITY           SKY/WX    TMP DP  RH WIND       PRES   REMARKS
PHILADELPHIA   PTSUNNY   88  64  44 SW14      30.03F
ALLENTOWN      CLOUDY    84  60  44 W9        30.03S
SCRANTON       PTSUNNY   83  62  49 SW8       30.04S
$$

CTZ002-004>006-009-010-012-RIZ004-006-007-MAZ004-011-015-302300-
SOUTHERN NEW ENGLAND
 IN CT

CITY           SKY/WX    TMP DP  RH WIND       PRES   REMARKS
BRADLEY INTL   PTSUNNY   84  66  54 N7        29.99S
HARTFORD       MOSUNNY   85  63  47 SW6       29.99R
DANBURY        CLOUDY    82  64  54 S8        30.03F
WTRBRY/OXFORD  SUNNY     82  64  54 S9        30.05S
BRIDGEPORT     PTSUNNY   82  68  62 S12       30.01S
MERIDEN        PTSUNNY   85  66  53 S9        30.00S
NEW HAVEN      PTSUNNY   80  70  71 S6        30.02S
CHESTER        NOT AVBL
GROTON         MOSUNNY   77  70  79 SW10      30.01F
WILLIMANTIC    CLOUDY    83  63  50 S9        30.01R

 IN RI

CITY           SKY/WX    TMP DP  RH WIND       PRES   REMARKS
PROVIDENCE     PTSUNNY   82  65  56 SW15      30.00S
BLOCK ISLAND   PTSUNNY   73  70  88 SW14G20   30.03S
WESTERLY       MOSUNNY   78  67  68 SW7       30.03S

 IN MA

CITY           SKY/WX    TMP DP  RH WIND       PRES   REMARKS
BOSTON         PTSUNNY   85  59  41 W8        29.99R
WORCESTER      MOSUNNY   79  61  53 W8        30.05S
WESTFIELD      MOSUNNY   83  62  49 NW6       30.00S
PROVINCETOWN   MOSUNNY   77  64  65 SW10      30.00S
NANTUCKET      PTSUNNY   74  70  87 SW12      30.03S
$$

ANZ330-335-338-340-345-350-353-355-302300-
COASTAL MARINE OBSERVATIONS


STATION/POSITION TIME  SKY/WX   TEMP    WIND        PRES    VSBY  WAVE
                                AIR SEA DIR/SP/G                  HT/PER
                 (UTC)          (F)     (DEG/KT/KT) (MB)    (MI)  (FT/S)
NY HARB ENTRANCE 2050            77 77  190/ 16/ 19 1016.4          3/10
4S FIRE IS       NOT AVBL
20S FIRE ISLAND  2050            76 75  210/ 12/ 16 1017.1          3/10
GREAT SOUTH BAY  2100            76 78  250/ 10/ 16   N/A
23SW MTP         2150            75 73  230/ 12/ 14 1016.6          3/10
HUDSON CANYON    NOT AVBL
KINGS POINT      NOT AVBL
EXECUTION ROCKS  2100            82     180/ 10/ 14   N/A
CENTRAL LI SOUND NOT AVBL
EASTERN LI SOUND 2100            76 71  220/ 10/ 14   N/A
ROBBINS REEF     NOT AVBL
$$


>>>>>>>>>>>>>>>>>>>>>>>>>>>> KEY <<<<<<<<<<<<<<<<<<<<<<<<<<<
>                                                          <
>     SKY/WX - SKY CONDITION/PRESENT WEATHER               <
>     TMP    - TEMPERATURE IN FAHRENHEIT                   <
>     DP     - DEWPOINT IN FAHRENHEIT                      <
>     RH     - RELATIVE HUMIDITY IN PERCENT                <
>     WIND   - DIRECTION AND SPEED IN MPH                  <
>     PRES   - MEAN SEA LEVEL PRESSURE IN INCHES OF HG     <
>     WCI    - WIND CHILL INDEX                            <
>     VSB    - VISIBILITY IN MILES                         <
>     HX     - HEAT INDEX                                  <
>     TC     - TEMPERATURE IN CELSIUS                      <
>     VRB    - VARIABLE WIND DIRECTION                     <
>                                                          <
>>>>>>>>>>>>>>>>>>>>>>>>>>>> KEY <<<<<<<<<<<<<<<<<<<<<<<<<<<





USA.gov is the U.S. government's official web portal to all federal, state and local government web resources and services.